GSAT-14 (39498 NORAD) Tracking and Keplerian Element Data

This shows tracking and keplerian element data for the satellite.

Feedback or suggestion? Click here.




ElementValue
Catalog39498
NameGSAT-14
Epoch Orbit4037
Epoch Day34.62685751
Epoch Year2025
RAAN267.306
Inclination0.0481
Eccentricity0.000641
Argument of Perigee12.4388
Mean Anonmoly153.9524
Mean Motion1.00271529
Decay Rate-7.3E-07
L11 39498U 14001A 25034.62685751 -.00000073 00000+0 00000+0 0 9992
L22 39498 0.0481 267.3060 0006410 12.4388 153.9524 1.00271529 40379



Live tracking and technical data element details for GSAT-14 (NORAD 39498). GSAT-14 can be tracked NOW for your location showing map with azimuth and elevation plus other details from your city location.







IsCatalogInMostPopularTable: catalog: 39498, numindb: 585
Update: records affected: 1



GetName: 39498 GSAT-14

Hit Count: updated at: Thu, 15 May 2025 19:24:52 GMT